Zurück zum Katalog

FENGYUN 1C DEB

AktivSSO
NORAD 37589·DEBRIS·🇨🇳 China

Gestartet May 10, 1999 von Taiyuan Satellite Launch Center

Loading…

Nächste Überflüge (nächste 24 Stunden)

TLE

VeraltetSource: Space-Track

Epoche: Aug 30, 2026, 23:07 UTC

1 37589U 99025EKH 26242.96342787  .00002823  00000-0  15194-2 0  9996
2 37589  99.0681 152.5604 0112554 252.6063 106.2774 14.10479981862649

Verfolge FENGYUN 1C DEB in Echtzeit mit AllMySat

Download on the App Store